Bookmark and Share
Track history (hours):
 

Norbank

Operator: P & O Ferries

Last reported at 2014-Apr-19 01:34 UTC. Time now 2014-Apr-19 02:12 UTC.
Position N 53°31' W 003°47'.

Length 167 m; draft 5.6 m.

Type: Ship (hazmat cat A). MMSI: 246213000.

NotesDate/timePositionNaut miles runAvg speedWind from/ knotsBaromVisibWave heightAir tempDewpointWater temp
2014-Apr-19 01:34N 53°31' W 003°47'1616.2
2014-Apr-19 00:33N 53°34' W 004°14'1817.7
2014-Apr-18 23:33N 53°35' W 004°44'2019.0
2014-Apr-18 22:31N 53°30' W 005°16'1919.5
2014-Apr-18 21:33N 53°24' W 005°46'1714.1
2014-Apr-18 20:22N 53°21' W 006°13'0 0.0
2014-Apr-18 19:28N 53°21' W 006°13'0 0.0
2014-Apr-18 18:33N 53°21' W 006°13'0 0.0
2014-Apr-18 17:33N 53°21' W 006°13'0 0.0
2014-Apr-18 16:32N 53°21' W 006°13'8517.0
2014-Apr-18 11:32N 53°34' W 003°52'1717.9
2014-Apr-18 10:33N 53°32' W 003°23'14 4.5
2014-Apr-18 07:29N 53°27' W 003°01'0 0.0
2014-Apr-18 06:29N 53°27' W 003°01'0 0.0
2014-Apr-18 05:32N 53°27' W 003°01'0 0.1
2014-Apr-18 04:12N 53°27' W 003°01'0 0.7
2014-Apr-18 03:32N 53°27' W 003°01'1312.6
2014-Apr-18 02:33N 53°31' W 003°21'1515.4
2014-Apr-18 01:33N 53°32' W 003°46'8316.6
2014-Apr-17 20:33N 53°20' W 006°04'6 5.2
2014-Apr-17 19:30N 53°21' W 006°13'0 0.0
2014-Apr-17 18:29N 53°21' W 006°13'0 0.0
2014-Apr-17 17:29N 53°21' W 006°13'0 0.1
2014-Apr-17 16:19N 53°21' W 006°13'8818.5
2014-Apr-17 11:33N 53°33' W 003°46'1919.0
2014-Apr-17 10:33N 53°31' W 003°15'9 9.1
2014-Apr-17 09:32N 53°27' W 003°01'0 0.2
2014-Apr-17 07:33N 53°27' W 003°01'0 0.0
2014-Apr-17 06:32N 53°27' W 003°01'0 0.0
2014-Apr-17 05:32N 53°27' W 003°01'0 0.0
2014-Apr-17 04:31N 53°27' W 003°01'1 0.6
2014-Apr-17 03:33N 53°27' W 003°01'1211.7
2014-Apr-17 02:33N 53°31' W 003°19'1818.0
2014-Apr-17 01:33N 53°32' W 003°49'2015.5
2014-Apr-17 00:14N 53°35' W 004°23'67 8.5
2014-Apr-16 16:21N 53°21' W 006°13'7216.9
2014-Apr-16 12:07N 53°34' W 004°15'1119.1
2014-Apr-16 11:33N 53°34' W 003°57'1918.6
2014-Apr-16 10:33N 53°33' W 003°25'1615.6
2014-Apr-16 09:33N 53°27' W 003°01'1 0.6
2014-Apr-16 08:22N 53°27' W 003°01'0 0.0
2014-Apr-16 07:28N 53°27' W 003°01'0 0.0
2014-Apr-16 06:28N 53°27' W 003°01'0 0.0
2014-Apr-16 05:30N 53°27' W 003°01'0 0.0
2014-Apr-16 04:33N 53°27' W 003°01'1 0.6
2014-Apr-16 03:33N 53°27' W 003°01'1211.8
2014-Apr-16 02:33N 53°31' W 003°19'1717.4
2014-Apr-16 01:33N 53°32' W 003°48'1817.7
2014-Apr-16 00:33N 53°36' W 004°17'20 1.3
2014-Apr-15 09:33N 53°34' W 003°44'1716.8
2014-Apr-15 08:34N 53°32' W 003°16'1010.1
2014-Apr-15 07:34N 53°27' W 003°01'0 0.4
2014-Apr-15 06:34N 53°27' W 003°01'0 0.0
2014-Apr-15 05:30N 53°27' W 003°01'0 0.0
2014-Apr-15 03:29N 53°27' W 003°01'1 0.6
2014-Apr-15 02:34N 53°27' W 003°02'1010.1
2014-Apr-15 01:34N 53°31' W 003°17'1817.5
2014-Apr-15 00:33N 53°31' W 003°47'8814.7
2014-Apr-14 18:34N 53°21' W 006°13'0 0.0
2014-Apr-14 17:33N 53°21' W 006°13'0 0.0
2014-Apr-14 16:33N 53°21' W 006°13'0 0.0
2014-Apr-14 15:32N 53°21' W 006°13'0 0.0
2014-Apr-14 14:32N 53°21' W 006°13'0 0.0
2014-Apr-14 13:32N 53°21' W 006°13'0 0.0
2014-Apr-14 10:30N 53°21' W 006°13'0 0.0
2014-Apr-14 08:29N 53°21' W 006°13'11211.3
2014-Apr-13 22:33N 53°31' W 003°06'4 4.3
2014-Apr-13 21:33N 53°27' W 003°01'0 0.0
2014-Apr-13 20:33N 53°27' W 003°01'0 0.0
2014-Apr-13 19:30N 53°27' W 003°01'0 0.0
2014-Apr-13 18:29N 53°27' W 003°01'0 0.0
2014-Apr-13 17:29N 53°27' W 003°01'0 0.0
2014-Apr-13 16:29N 53°27' W 003°01'0 0.0
2014-Apr-13 15:28N 53°27' W 003°01'0 0.0
2014-Apr-13 14:28N 53°27' W 003°01'0 0.0
2014-Apr-13 13:33N 53°27' W 003°01'0 0.0
2014-Apr-13 12:33N 53°27' W 003°01'0 0.0
2014-Apr-13 11:26N 53°27' W 003°01'0 0.0
2014-Apr-13 10:26N 53°27' W 003°01'0 0.0
2014-Apr-13 09:25N 53°27' W 003°01'0 0.1
2014-Apr-13 08:16N 53°27' W 003°01'0 0.0
2014-Apr-13 07:28N 53°27' W 003°01'0 0.0
2014-Apr-13 06:28N 53°27' W 003°01'0 0.0
2014-Apr-13 05:33N 53°27' W 003°01'0 0.3
2014-Apr-13 04:33N 53°27' W 003°01'5 5.5
2014-Apr-13 03:33N 53°31' W 003°07'1616.3
2014-Apr-13 02:33N 53°31' W 003°35'1514.8
2014-Apr-13 01:34N 53°33' W 003°59'8113.4
2014-Apr-12 19:33N 53°21' W 006°13'0 0.0
2014-Apr-12 18:26N 53°21' W 006°13'0 0.0
2014-Apr-12 17:32N 53°21' W 006°13'0 0.0
2014-Apr-12 16:31N 53°21' W 006°13'8316.8
2014-Apr-12 11:33N 53°34' W 003°55'1918.9
2014-Apr-12 10:33N 53°32' W 003°24'1514.8
2014-Apr-12 09:33N 53°26' W 003°01'1 1.1
2014-Apr-12 08:33N 53°27' W 003°01'0 0.0
2014-Apr-12 07:16N 53°27' W 003°01'0 0.0
2014-Apr-12 06:28N 53°27' W 003°01'0 0.0
2014-Apr-12 05:33N 53°27' W 003°01'0 0.0
2014-Apr-12 04:33N 53°27' W 003°01'1 0.6
2014-Apr-12 03:33N 53°27' W 003°01'1111.2
2014-Apr-12 02:33N 53°31' W 003°18'1818.4
2014-Apr-12 01:33N 53°32' W 003°49'8614.3
2014-Apr-11 19:32N 53°21' W 006°13'0 0.0
2014-Apr-11 18:26N 53°21' W 006°13'0 0.0
2014-Apr-11 17:31N 53°21' W 006°13'0 0.1
2014-Apr-11 16:20N 53°21' W 006°13'8216.0
2014-Apr-11 11:13N 53°34' W 003°57'1116.8
2014-Apr-11 10:33N 53°33' W 003°38'1616.5
2014-Apr-11 09:33N 53°32' W 003°11'7 7.2
2014-Apr-11 08:33N 53°27' W 003°01'0 0.2
2014-Apr-11 07:32N 53°27' W 003°01'0 0.0
2014-Apr-11 06:31N 53°27' W 003°01'0 0.0
2014-Apr-11 05:19N 53°27' W 003°01'0 0.0
2014-Apr-11 04:30N 53°27' W 003°01'0 0.5
2014-Apr-11 03:33N 53°27' W 003°01'1111.5
2014-Apr-11 02:33N 53°31' W 003°19'1918.6
2014-Apr-11 01:34N 53°32' W 003°50'1818.3
2014-Apr-11 00:33N 53°35' W 004°20'6 0.5
2014-Apr-10 11:28N 53°34' W 004°10'1819.8
2014-Apr-10 10:33N 53°34' W 003°39'1918.9
2014-Apr-10 09:34N 53°32' W 003°08'6 5.9
2014-Apr-10 08:33N 53°27' W 003°01'0 0.0
2014-Apr-10 07:33N 53°27' W 003°01'0 0.0
2014-Apr-10 06:34N 53°27' W 003°01'0 0.0
2014-Apr-10 05:33N 53°27' W 003°01'0 0.0
2014-Apr-10 04:33N 53°27' W 003°01'0 0.5
2014-Apr-10 03:33N 53°27' W 003°01'1010.2
2014-Apr-10 02:33N 53°31' W 003°17'1817.8
2014-Apr-10 01:33N 53°32' W 003°47'1918.8
2014-Apr-10 00:33N 53°35' W 004°18'4 0.3
2014-Apr-09 12:33N 53°34' W 004°24'1918.6
2014-Apr-09 11:33N 53°34' W 003°52'1616.0
2014-Apr-09 10:33N 53°32' W 003°26'1515.4
2014-Apr-09 09:33N 53°27' W 003°01'1 0.7
2014-Apr-09 08:33N 53°27' W 003°01'0 0.0
2014-Apr-09 06:28N 53°27' W 003°01'0 0.0
2014-Apr-09 05:28N 53°27' W 003°01'0 0.1
2014-Apr-09 04:06N 53°27' W 003°01'0 0.8
2014-Apr-09 03:33N 53°27' W 003°01'1312.9
2014-Apr-09 02:34N 53°31' W 003°22'  

Dump ship's entire track history

sailing weather and tide predictions

Norbank — PGIS — position and weather